GW3806 Weather Reports


time (UTC)temp
F
wind
direction
speed
knots
gust
knots
rain 1hr
in
rain 24hr
in
rain mn
in
humidity
%
barometer
mb
20260906233226 73 213 8.7 12.2 0.00 0.00 0.00 34 1015.7
20260906232721 73 208 4.3 14.8 0.00 0.00 0.00 35 1015.6
20260906232216 74 211 6.1 13.0 0.00 0.00 0.00 35 1015.6
20260906231710 76 165 7.8 13.0 0.00 0.00 0.00 36 1015.5
20260906231206 75 210 4.3 13.0 0.00 0.00 0.00 35 1015.5
20260906230704 74 229 7.0 16.5 0.00 0.00 0.00 34 1015.6
20260906230200 75 215 7.8 14.8 0.00 0.00 0.00 34 1015.5
20260906225659 75 217 6.1 17.4 0.00 0.00 0.00 34 1015.5
20260906225155 77 207 6.1 7.0 0.00 0.00 0.00 35 1015.7
20260906224650 76 214 4.3 14.8 0.00 0.00 0.00 33 1015.5
20260906224146 76 224 7.8 11.3 0.00 0.00 0.00 34 1015.4
20260906223643 75 225 7.0 12.2 0.00 0.00 0.00 33 1015.4
20260906223137 75 202 6.1 12.2 0.00 0.00 0.00 33 1015.5
20260906222635 76 180 3.5 14.8 0.00 0.00 0.00 32 1015.4
20260906222134 77 224 7.0 13.0 0.00 0.00 0.00 31 1015.4
20260906221632 78 184 3.5 12.2 0.00 0.00 0.00 31 1015.4
20260906221127 76 243 8.7 13.0 0.00 0.00 0.00 31 1015.4
20260906220623 77 234 5.2 10.4 0.00 0.00 0.00 31 1015.5
20260906220118 78 211 6.1 12.2 0.00 0.00 0.00 32 1015.4
20260906215616 78 156 5.2 11.3 0.00 0.00 0.00 32 1015.1
20260906215115 78 230 7.8 7.8 0.00 0.00 0.00 32 1015.4
20260906214614 76 197 4.3 20.9 0.00 0.00 0.00 31 1015.4
20260906214109 77 201 5.2 9.6 0.00 0.00 0.00 31 1015.6
20260906213608 77 221 6.1 17.4 0.00 0.00 0.00 30 1015.9
20260906213103 76 216 12.2 16.5 0.00 0.00 0.00 30 1015.7
20260906212600 76 157 4.3 10.4 0.00 0.00 0.00 30 1016.0
20260906212056 77 204 8.7 21.7 0.00 0.00 0.00 30 1016.0
20260906211555 76 207 10.4 18.2 0.00 0.00 0.00 31 1015.9
20260906211051 75 209 7.0 13.0 0.00 0.00 0.00 31 1015.9
20260906210546 76 218 7.8 10.4 0.00 0.00 0.00 31 1016.0
20260906210041 78 201 2.6 10.4 0.00 0.00 0.00 29 1016.1
20260906205537 78 204 8.7 14.8 0.00 0.00 0.00 30 1016.2
20260906205033 78 207 7.0 14.8 0.00 0.00 0.00 30 1016.4
20260906204532 79 233 6.1 9.6 0.00 0.00 0.00 29 1016.1
20260906204032 79 163 8.7 13.0 0.00 0.00 0.00 28 1016.1
20260906203532 79 167 5.2 8.7 0.00 0.00 0.00 30 1016.0
20260906203027 76 220 9.6 13.0 0.00 0.00 0.00 30 1016.0
20260906202523 77 213 4.3 11.3 0.00 0.00 0.00 30 1016.0
20260906202019 76 168 4.3 9.6 0.00 0.00 0.00 32 1016.1
20260906201518 76 207 11.3 13.0 0.00 0.00 0.00 32 1016.2
20260906201013 76 161 8.7 12.2 0.00 0.00 0.00 33 1016.4
20260906200508 76 192 3.5 9.6 0.00 0.00 0.00 32 1016.2
20260906200004 75 201 3.5 13.9 0.00 0.00 0.00 32 1016.6
20260906195500 75 241 5.2 7.0 0.00 0.00 0.00 32 1016.5
20260906194956 75 211 5.2 10.4 0.00 0.00 0.00 32 1016.4
20260906194451 75 229 8.7 16.5 0.00 0.00 0.00 31 1016.5
20260906193947 76 184 6.1 17.4 0.00 0.00 0.00 29 1016.5
20260906193447 77 240 7.8 18.2 0.00 0.00 0.00 32 1016.6
20260906192942 78 148 2.6 7.8 0.00 0.00 0.00 30 1016.7
20260906192437 75 212 4.3 7.8 0.00 0.00 0.00 32 1017.0
20260906191937 76 142 6.1 15.6 0.00 0.00 0.00 31 1016.8
20260906191432 77 172 6.1 11.3 0.00 0.00 0.00 31 1017.0
20260906190931 75 147 7.8 13.0 0.00 0.00 0.00 30 1017.1
20260906190430 75 161 11.3 13.9 0.00 0.00 0.00 30 1017.0
20260906185925 75 160 8.7 13.9 0.00 0.00 0.00 29 1017.3
20260906185424 75 161 4.3 12.2 0.00 0.00 0.00 30 1017.2
20260906184923 75 142 10.4 19.1 0.00 0.00 0.00 30 1017.4
20260906184419 76 199 2.6 17.4 0.00 0.00 0.00 31 1017.3
20260906183913 74 214 12.2 15.6 0.00 0.00 0.00 31 1017.4
20260906183410 75 207 7.8 12.2 0.00 0.00 0.00 30 1017.4
20260906182905 74 220 4.3 14.8 0.00 0.00 0.00 32 1017.3
20260906182401 75 212 4.3 14.8 0.00 0.00 0.00 31 1017.4
20260906181856 75 223 14.8 15.6 0.00 0.00 0.00 32 1017.7
20260906181352 75 173 4.3 13.0 0.00 0.00 0.00 31 1017.6
20260906180848 73 199 6.1 13.9 0.00 0.00 0.00 31 1017.7
20260906180342 74 204 8.7 13.0 0.00 0.00 0.00 31 1017.6
20260906175839 74 208 6.1 16.5 0.00 0.00 0.00 33 1017.8
20260906175335 73 206 7.0 17.4 0.00 0.00 0.00 32 1017.8
20260906174833 74 219 10.4 13.9 0.00 0.00 0.00 34 1017.8
20260906174328 74 173 5.2 13.0 0.00 0.00 0.00 33 1018.2
20260906173822 73 210 13.9 16.5 0.00 0.00 0.00 33 1018.1
20260906173318 74 156 1.7 14.8 0.00 0.00 0.00 33 1018.2
20260906172817 73 220 13.9 20.9 0.00 0.00 0.00 31 1018.2
20260906172313 74 206 7.0 13.9 0.00 0.00 0.00 32 1018.2
20260906171808 73 217 5.2 14.8 0.00 0.00 0.00 33 1018.2
20260906171303 74 160 7.8 18.2 0.00 0.00 0.00 32 1018.3
20260906170758 73 163 7.8 12.2 0.00 0.00 0.00 33 1018.4
20260906170254 75 171 3.5 10.4 0.00 0.00 0.00 33 1018.3
20260906165750 73 169 5.2 15.6 0.00 0.00 0.00 35 1018.4
20260906165244 73 241 2.6 12.2 0.00 0.00 0.00 34 1018.4
20260906164743 73 161 7.8 13.0 0.00 0.00 0.00 34 1018.2
20260906164238 73 180 2.6 13.0 0.00 0.00 0.00 33 1018.3
20260906163734 73 217 9.6 14.8 0.00 0.00 0.00 34 1018.4
20260906163231 72 199 7.8 16.5 0.00 0.00 0.00 32 1018.4
20260906162727 72 207 6.1 13.9 0.00 0.00 0.00 33 1018.4
20260906162222 72 214 7.8 16.5 0.00 0.00 0.00 34 1018.5
20260906161717 73 175 6.1 10.4 0.00 0.00 0.00 33 1018.5
20260906161216 72 163 5.2 10.4 0.00 0.00 0.00 34 1018.4
20260906160715 72 211 6.1 8.7 0.00 0.00 0.00 34 1018.4
20260906160214 72 220 7.0 9.6 0.00 0.00 0.00 34 1018.7
20260906155712 72 167 6.1 13.9 0.00 0.00 0.00 34 1018.5
20260906155207 72 175 4.3 13.0 0.00 0.00 0.00 33 1018.7
20260906154702 72 201 2.6 11.3 0.00 0.00 0.00 34 1018.5
20260906154157 72 219 7.8 8.7 0.00 0.00 0.00 33 1018.7
20260906153655 72 211 4.3 7.0 0.00 0.00 0.00 35 1018.5
20260906153150 71 207 7.8 11.3 0.00 0.00 0.00 33 1018.7
20260906152645 71 186 7.0 10.4 0.00 0.00 0.00 33 1018.7
20260906152144 71 230 3.5 5.2 0.00 0.00 0.00 38 1018.5
20260906151639 72 180 2.6 4.3 0.00 0.00 0.00 35 1018.5
20260906151135 71 167 2.6 5.2 0.00 0.00 0.00 35 1018.3
20260906150630 70 176 2.6 6.1 0.00 0.00 0.00 35 1018.3
20260906150126 69 174 2.6 5.2 0.00 0.00 0.00 38 1018.3
20260906145624 70 178 2.6 4.3 0.00 0.00 0.00 36 1018.5
20260906145119 70 171 3.5 6.1 0.00 0.00 0.00 36 1018.5
20260906144614 68 81 0.0 1.7 0.00 0.00 0.00 42 1018.4
20260906144109 67 97 0.9 2.6 0.00 0.00 0.00 44 1018.3
20260906143609 67 93 2.6 4.3 0.00 0.00 0.00 43 1018.7
20260906143106 66 90 1.7 2.6 0.00 0.00 0.00 42 1018.5
20260906142605 65 98 0.9 2.6 0.00 0.00 0.00 46 1018.4
20260906142101 63 18 0.9 3.5 0.00 0.00 0.00 46 1018.4
20260906141559 62 23 0.9 3.5 0.00 0.00 0.00 47 1018.4
20260906141050 63 0 0.0 2.6 0.00 0.00 0.00 46 1018.7
20260906140548 63 3 1.7 3.5 0.00 0.00 0.00 44 1018.3
20260906140043 61 29 0.9 1.7 0.00 0.00 0.00 46 1018.3
20260906135540 58 15 0.0 2.6 0.00 0.00 0.00 49 1018.2
20260906135037 56 3 2.6 3.5 0.00 0.00 0.00 51 1018.2
20260906134536 55 79 2.6 3.5 0.00 0.00 0.00 53 1018.1
20260906134031 54 66 0.0 3.5 0.00 0.00 0.00 54 1018.2
20260906133527 54 94 2.6 2.6 0.00 0.00 0.00 53 1018.1
20260906133023 52 60 0.0 1.7 0.00 0.00 0.00 56 1018.1
20260906132518 53 90 0.9 4.3 0.00 0.00 0.00 54 1018.2
20260906132013 53 356 1.7 2.6 0.00 0.00 0.00 53 1018.2
20260906131508 54 73 2.6 3.5 0.00 0.00 0.00 52 1018.1
20260906131004 53 74 0.9 1.7 0.00 0.00 0.00 54 1018.1
20260906130504 53 38 1.7 5.2 0.00 0.00 0.00 54 1017.9
20260906130004 55 83 2.6 3.5 0.00 0.00 0.00 48 1017.9
20260906125501 55 47 2.6 2.6 0.00 0.00 0.00 49 1018.1
20260906125001 53 23 1.7 2.6 0.00 0.00 0.00 53 1017.9
20260906124456 54 45 2.6 4.3 0.00 0.00 0.00 52 1017.9
20260906123951 57 21 0.0 2.6 0.00 0.00 0.00 48 1018.1
20260906123450 60 90 3.5 6.1 0.00 0.00 0.00 41 1017.7
20260906122945 56 77 2.6 4.3 0.00 0.00 0.00 48 1017.8
20260906122445 58 36 1.7 2.6 0.00 0.00 0.00 46 1017.8
20260906121942 59 111 4.3 5.2 0.00 0.00 0.00 43 1018.1
20260906121437 62 68 0.0 3.5 0.00 0.00 0.00 40 1017.8
20260906120934 62 135 3.5 4.3 0.00 0.00 0.00 38 1017.8
20260906120429 61 135 1.7 2.6 0.00 0.00 0.00 40 1017.8
20260906115926 59 28 2.6 2.6 0.00 0.00 0.00 44 1017.7
20260906115421 59 88 3.5 3.5 0.00 0.00 0.00 45 1017.8
20260906114920 61 20 0.9 4.3 0.00 0.00 0.00 41 1017.8
20260906114415 59 96 1.7 3.5 0.00 0.00 0.00 44 1017.8
20260906113911 57 54 0.9 2.6 0.00 0.00 0.00 49 1017.8
20260906113409 57 81 0.0 0.9 0.00 0.00 0.00 44 1017.7
20260906112905 57 90 2.6 3.5 0.00 0.00 0.00 46 1017.8
20260906112401 55 14 2.6 2.6 0.00 0.00 0.00 49 1017.7
20260906111855 57 53 1.7 2.6 0.00 0.00 0.00 49 1017.8
20260906111349 55 28 2.6 3.5 0.00 0.00 0.00 51 1017.7
20260906110844 57 23 2.6 4.3 0.00 0.00 0.00 49 1017.6
20260906110340 61 300 0.0 1.7 0.00 0.00 0.00 41 1017.4
20260906105839 62 135 2.6 4.3 0.00 0.00 0.00 40 1017.4
20260906105335 59 140 0.0 2.6 0.00 0.00 0.00 45 1017.4
20260906104831 56 90 0.9 2.6 0.00 0.00 0.00 50 1017.6
20260906104329 55 66 1.7 2.6 0.00 0.00 0.00 51 1017.6
20260906103827 54 74 0.9 3.5 0.00 0.00 0.00 54 1017.2
20260906103321 53 90 0.9 2.6 0.00 0.00 0.00 55 1017.3
20260906102817 54 90 0.0 1.7 0.00 0.00 0.00 55 1017.1
20260906102316 55 56 1.7 2.6 0.00 0.00 0.00 53 1017.2
20260906101811 55 90 0.9 2.6 0.00 0.00 0.00 54 1017.2
20260906101306 55 45 2.6 2.6 0.00 0.00 0.00 53 1017.2
20260906100802 57 30 1.7 2.6 0.00 0.00 0.00 49 1017.2
20260906100300 59 29 2.6 2.6 0.00 0.00 0.00 46 1017.1
20260906095755 57 26 0.9 2.6 0.00 0.00 0.00 49 1017.2
20260906095251 56 39 2.6 2.6 0.00 0.00 0.00 50 1017.0
20260906094745 55 45 1.7 2.6 0.00 0.00 0.00 53 1017.0
20260906094240 55 41 1.7 2.6 0.00 0.00 0.00 53 1017.0
20260906093736 55 90 1.7 2.6 0.00 0.00 0.00 53 1016.8
20260906093231 55 32 0.0 2.6 0.00 0.00 0.00 53 1017.0
20260906092727 55 74 0.0 2.6 0.00 0.00 0.00 54 1017.0
20260906092226 54 90 1.7 3.5 0.00 0.00 0.00 54 1017.0
20260906091722 54 85 1.7 1.7 0.00 0.00 0.00 56 1017.1
20260906091213 54 99 1.7 2.6 0.00 0.00 0.00 56 1017.1
20260906090709 53 353 0.0 1.7 0.00 0.00 0.00 56 1017.0
20260906090208 53 83 0.9 2.6 0.00 0.00 0.00 57 1017.1
20260906085707 53 90 0.0 3.5 0.00 0.00 0.00 56 1017.1
20260906085206 51 12 0.0 0.9 0.00 0.00 0.00 60 1017.2
20260906084701 51 81 0.0 3.5 0.00 0.00 0.00 60 1017.1
20260906084200 51 83 0.0 2.6 0.00 0.00 0.00 60 1017.1
20260906083655 52 5 0.0 2.6 0.00 0.00 0.00 59 1017.1
20260906083151 52 90 1.7 2.6 0.00 0.00 0.00 59 1017.1
20260906082646 53 270 0.0 1.7 0.00 0.00 0.00 57 1017.3
20260906082141 54 107 1.7 5.2 0.00 0.00 0.00 56 1017.4
20260906081637 54 113 0.0 4.3 0.00 0.00 0.00 55 1017.2
20260906081132 54 97 3.5 4.3 0.00 0.00 0.00 56 1017.2
20260906080629 54 97 2.6 7.0 0.00 0.00 0.00 55 1017.3
20260906080125 54 96 2.6 6.1 0.00 0.00 0.00 55 1017.3
20260906075624 54 118 2.6 5.2 0.00 0.00 0.00 56 1017.3
20260906075119 54 79 2.6 2.6 0.00 0.00 0.00 55 1017.4
20260906074614 54 90 1.7 2.6 0.00 0.00 0.00 54 1017.4
20260906074108 55 102 1.7 6.1 0.00 0.00 0.00 54 1017.4
20260906073608 55 41 0.0 4.3 0.00 0.00 0.00 54 1017.4
20260906073103 55 97 3.5 5.2 0.00 0.00 0.00 53 1017.4
20260906072558 56 85 1.7 7.0 0.00 0.00 0.00 52 1017.6
20260906072054 55 74 5.2 7.8 0.00 0.00 0.00 52 1017.7
20260906071551 56 116 4.3 7.0 0.00 0.00 0.00 52 1017.8
20260906071045 55 102 4.3 7.0 0.00 0.00 0.00 53 1017.7
20260906070542 55 88 5.2 6.1 0.00 0.00 0.00 53 1017.8
20260906070037 55 93 3.5 5.2 0.00 0.00 0.00 53 1017.8
20260906065537 55 103 3.5 7.8 0.00 0.00 0.00 53 1017.9
20260906065032 56 84 1.7 8.7 0.00 0.00 0.00 51 1017.8
20260906064528 56 75 2.6 10.4 0.00 0.00 0.00 51 1018.1
20260906064022 56 83 3.5 7.0 0.00 0.00 0.00 51 1018.2
20260906063518 55 42 2.6 5.2 0.00 0.00 0.00 51 1018.1
20260906063014 55 63 3.5 7.0 0.00 0.00 0.00 52 1018.2
20260906062508 55 117 7.8 7.8 0.00 0.00 0.00 52 1018.3
20260906061957 56 80 3.5 7.8 0.00 0.00 0.00 52 1017.9
20260906061454 54 73 4.3 7.0 0.00 0.00 0.00 54 1018.1
20260906060953 54 90 2.6 7.8 0.00 0.00 0.00 54 1018.3
20260906060450 53 92 6.1 8.7 0.00 0.00 0.00 56 1018.4
20260906055946 54 49 4.3 7.0 0.00 0.00 0.00 55 1018.5
20260906055436 55 105 1.7 6.1 0.00 0.00 0.00 54 1018.5
20260906054931 55 111 0.0 3.5 0.00 0.00 0.00 54 1018.4
20260906054426 55 7 0.9 6.1 0.00 0.00 0.00 54 1018.8
20260906053922 55 86 2.6 4.3 0.00 0.00 0.00 55 1018.8
20260906053418 54 54 0.9 3.5 0.00 0.00 0.00 55 1018.8
20260906052913 54 106 0.9 2.6 0.00 0.00 0.00 55 1018.8
20260906052409 55 113 4.3 4.3 0.00 0.00 0.00 54 1018.9
20260906051906 55 26 1.7 4.3 0.00 0.00 0.00 54 1019.0
20260906051406 54 120 0.0 3.5 0.00 0.00 0.00 56 1019.0
20260906050902 54 105 0.0 2.6 0.00 0.00 0.00 57 1018.8
20260906050356 54 20 0.9 2.6 0.00 0.00 0.00 57 1019.1
20260906045855 54 132 0.0 4.3 0.00 0.00 0.00 57 1019.0
20260906045355 54 105 2.6 2.6 0.00 0.00 0.00 57 1019.0
20260906044851 54 96 2.6 4.3 0.00 0.00 0.00 57 1019.0
20260906044351 54 100 3.5 3.5 0.00 0.00 0.00 59 1019.0
20260906043847 54 99 5.2 5.2 0.00 0.00 0.00 59 1019.1
20260906043343 54 0 0.0 4.3 0.00 0.00 0.00 59 1019.1
20260906042838 54 57 2.6 4.3 0.00 0.00 0.00 60 1019.3
20260906042337 54 90 0.0 4.3 0.00 0.00 0.00 61 1019.1
20260906041833 55 74 2.6 4.3 0.00 0.00 0.00 61 1019.0
20260906041328 54 90 0.0 5.2 0.00 0.00 0.00 62 1019.1
20260906040828 54 96 3.5 5.2 0.00 0.00 0.00 62 1019.3
20260906040329 54 63 3.5 4.3 0.00 0.00 0.00 63 1019.1
20260906035824 54 98 1.7 4.3 0.00 0.00 0.00 63 1019.4
20260906035319 54 99 1.7 3.5 0.00 0.00 0.00 64 1019.3
20260906034815 54 90 6.1 7.0 0.00 0.00 0.00 64 1019.1
20260906034314 55 41 0.0 4.3 0.00 0.00 0.00 64 1019.1
20260906033811 55 23 2.6 3.5 0.00 0.00 0.00 63 1019.1
20260906033309 56 30 1.7 6.1 0.00 0.00 0.00 64 1019.0
20260906032806 56 80 2.6 8.7 0.00 0.00 0.00 63 1019.1
20260906032305 56 72 4.3 8.7 0.00 0.00 0.00 65 1019.1
20260906031757 55 49 1.7 6.1 0.00 0.00 0.00 66 1019.0
20260906031253 56 103 1.7 4.3 0.00 0.00 0.00 65 1018.9
20260906030752 57 5 1.7 3.5 0.00 0.00 0.00 64 1018.9
20260906030248 57 66 0.9 2.6 0.00 0.00 0.00 64 1018.8
20260906025747 57 90 2.6 5.2 0.00 0.00 0.00 64 1018.8
20260906025241 58 98 5.2 7.0 0.00 0.00 0.00 64 1018.8
20260906024740 57 73 0.0 7.8 0.00 0.00 0.00 64 1018.8
20260906024239 57 180 0.9 3.5 0.00 0.00 0.00 66 1018.5
20260906023735 57 94 0.0 1.7 0.00 0.00 0.00 66 1018.5
20260906023230 57 352 0.0 1.7 0.00 0.00 0.00 66 1018.4
20260906022726 58 82 1.7 5.2 0.00 0.00 0.00 66 1018.4
20260906022221 58 67 1.7 4.3 0.00 0.00 0.00 66 1018.4
20260906021717 58 90 2.6 4.3 0.00 0.00 0.00 66 1018.5
20260906021215 58 353 0.0 0.9 0.00 0.00 0.00 65 1018.5
20260906020711 59 0 0.9 1.7 0.00 0.00 0.00 66 1018.5
20260906020205 58 90 0.0 1.7 0.00 0.00 0.00 67 1018.3
20260906015700 60 90 2.6 3.5 0.00 0.00 0.00 66 1018.4
20260906015158 62 0 0.0 0.0 0.00 0.00 0.00 59 1018.4
20260906014652 64 349 1.7 1.7 0.00 0.00 0.00 56 1018.2
20260906014148 65 90 0.0 0.0 0.00 0.00 0.00 56 1018.4
20260906013644 66 98 0.0 2.6 0.00 0.00 0.00 53 1018.5
20260906013139 67 246 0.0 1.7 0.00 0.00 0.00 49 1018.7
20260906012639 68 278 0.0 0.9 0.00 0.00 0.00 47 1018.4
20260906012134 70 270 1.7 2.6 0.00 0.00 0.00 46 1018.5
20260906011630 71 253 0.0 1.7 0.00 0.00 0.00 45 1018.5
20260906011124 73 301 1.7 3.5 0.00 0.00 0.00 43 1018.5
20260906010619 73 246 0.0 1.7 0.00 0.00 0.00 43 1018.4
20260906010116 73 303 2.6 3.5 0.00 0.00 0.00 43 1018.4
20260906005609 73 276 1.7 3.5 0.00 0.00 0.00 43 1018.4
20260906005109 73 270 0.0 4.3 0.00 0.00 0.00 43 1018.3
20260906004608 74 250 1.7 2.6 0.00 0.00 0.00 41 1018.3
20260906004103 74 264 0.0 2.6 0.00 0.00 0.00 41 1018.3
20260906003558 74 327 1.7 5.2 0.00 0.00 0.00 42 1018.4
20260906003054 74 255 0.0 5.2 0.00 0.00 0.00 42 1018.2
20260906002549 75 342 0.0 5.2 0.00 0.00 0.00 42 1018.2
20260906002043 75 270 1.7 4.3 0.00 0.00 0.00 40 1018.3
20260906001538 75 0 1.7 3.5 0.00 0.00 0.00 41 1017.9
20260906001032 75 275 1.7 4.3 0.00 0.00 0.00 40 1018.1
20260906000529 75 268 3.5 6.1 0.00 0.00 0.00 39 1018.2
20260906000024 75 276 0.9 7.0 0.00 0.00 0.00 41 1018.1
20260905235517 76 240 2.6 4.3 0.00 0.00 0.00 41 1018.2
20260905235013 76 336 1.7 7.0 0.00 0.00 0.00 42 1018.2
20260905234509 75 258 1.7 7.8 0.00 0.00 0.00 38 1017.9
20260905234003 77 263 3.5 4.3 0.00 0.00 0.00 39 1017.9